Location: Fazenda Monte Alegre
(4.8500°S, 38.0333°W)
Time: 17:05:19
(UTC+00:00)

GPS 2-04 Rocket1 - Pass Details

Date: 24 September 2020
Orbit: 417 x 548 km, 35.6° (Epoch: 25 October)

Event Time Altitude Azimuth Distance (km) Brightness Sun altitude
Rises 21:46:41 0° 305° (NW) 2,695 7.2 -20.5°
Reaches altitude 10° 21:48:57 10° 303° (WNW) 1,801 6.2 -21.1°
Maximum altitude 21:53:07 74° 218° (SW) 560 2.8 -22.1°
Enters shadow 21:53:37 64° 163° (SSE) 595 2.8 -22.3°
